Regional Weather Roundup
Issued by NWS

Home | Current Version | Previous Version | Graphics & Text | Print | Product List | Glossary Off
Versions: 1 2 3 4 5 6 7 8 9 10 11 12 13 14 15 16 17 18 19 20 21 22 23 24 25 26 27 28 29 30 31 32 33 34 35 36 37 38 39 40 41 42 43 44 45 46 47 48 49 50

000
ASUS43 KMKX 252111
RWRWI

WISCONSIN REGIONAL WEATHER ROUNDUP
NATIONAL WEATHER SERVICE MILWAUKEE/SULLIVAN WI
400 PM CDT TUE JUL 25 2017

NOTE: "FAIR" INDICATES FEW OR NO CLOUDS BELOW 12,000 FEET WITH NO
SIGNIFICANT WEATHER AND/OR OBSTRUCTIONS TO VISIBILITY.

WIZ001-002-006>008-014>016-023>028-252200-
NORTHWEST WISCONSIN

CITY           SKY/WX    TMP DP  RH WIND       PRES   REMARKS
SUPERIOR ARPT  NOT AVBL
ASHLAND        CLOUDY    75  65  70 S7        29.98F
HAYWARD        CLOUDY    74  64  71 S8        30.00F
SIREN          CLOUDY    75  64  70 S9        29.98S
CUMBERLAND     CLOUDY    73  63  68 SE10      30.01S
RICE LAKE      CLOUDY    76  63  63 S15       30.03S
CHETEK         CLOUDY    76  65  70 SE15G22   30.03S
LADYSMITH      CLOUDY    74  64  72 S15G21    30.05F
EAU CLAIRE     PTSUNNY   76  64  66 S17       30.02F
MENOMONIE      PTSUNNY   78  66  67 SE9       30.02S HX  80
NEW RICHMOND   PTSUNNY   78  65  65 S12G17    29.99S HX  80
OSCEOLA        CLOUDY    79  67  64 S8        29.99F HX  81
$$

WIZ003>005-009-010-017-018-252200-
NORTH CENTRAL WISCONSIN

CITY           SKY/WX    TMP DP  RH WIND       PRES   REMARKS
MANITOWISH WTR CLOUDY    71  57  61 S12G18    30.07F
ARBOR VITAE    CLOUDY    72  57  59 S9G18     30.07F
WOODRUFF       CLOUDY    72  57  59 S9G18     30.07F
RHINELANDER    CLOUDY    71  57  61 S8        30.11F
EAGLE RIVER    MOSUNNY   73  50  43 S7G18     30.09F
LAND O LAKES   MOSUNNY   75  47  37 S8G17     30.11R
PHILLIPS       MOSUNNY   70  62  75 S13       30.07S
TOMAHAWK         N/A     69  59  69 S3        30.09S
MEDFORD        CLOUDY    71  62  74 S14       30.08F
MERRILL        CLOUDY    65  63  91 S7        30.10F
$$

WIZ029-030-035-036-043>047-252200-
CENTRAL WISCONSIN

CITY           SKY/WX    TMP DP  RH WIND       PRES   REMARKS
WAUSAU         CLOUDY    71  58  63 S14       30.09S
MOSINEE        PTSUNNY   73  61  64 S12       30.13R
MARSHFIELD     CLOUDY    73  61  65 S12       30.09S
STEVENS POINT  MOSUNNY   75  59  57 S13G18    30.11S
WAUPACA        MOSUNNY   78  61  54 S14       30.11F HX  80
WAUTOMA        PTSUNNY   77  63  61 S14G21    30.11F
WISC RAPIDS    SUNNY     78  61  55 SW12G20   30.11S HX  80
CAMP DOUGLAS   PTSUNNY   75  64  69 S14G22    30.08F
$$

WIZ011>013-019>022-031-037>040-048>050-252200-
NORTHEAST WISCONSIN

CITY           SKY/WX    TMP DP  RH WIND       PRES   REMARKS
ANTIGO         CLOUDY    70  56  62 S10       30.13S
SHAWANO        CLOUDY    78  59  51 S7        30.11R HX  80
OCONTO         CLOUDY    76  62  61 S8        30.10F
STURGEON BAY     N/A     73  62  68 S16       30.12F
GREEN BAY      PTSUNNY   77  63  61 S13G21    30.11F
MANITOWOC      CLOUDY    72  59  63 S18G25    30.14F
APPLETON       PTSUNNY   77  57  50 S13       30.11S
CLINTONVILLE   CLOUDY   N/A N/A N/A S12       30.11S
OSHKOSH        CLOUDY    75  62  64 S9        30.11F
$$

WIZ032>034-041-042-053>061-252200-
SOUTHWEST WISCONSIN

CITY           SKY/WX    TMP DP  RH WIND       PRES   REMARKS
LA CROSSE      PTSUNNY   80  68  66 S17G23    30.03F HX  83
SPARTA         MOSUNNY   75  65  70 SE9       30.07S
VIROQUA        PTSUNNY   75  66  74 S15G21    30.09S
BOSCOBEL       SUNNY     80  66  62 VRB6      30.08F HX  82
PRAIRIE DU CHI SUNNY     80  64  58 S9        30.07S HX  81
PLATTEVILLE    MOSUNNY   78  69  72 S14       30.12F HX  80
$$

WIZ056-057-062-063-064-067-068-252200-
SOUTH CENTRAL WISCONSIN

CITY           SKY/WX    TMP DP  RH WIND       PRES   REMARKS
REEDSBURG      CLOUDY    74  66  74 S10       30.10F
BARABOO/DELLS  CLOUDY    78  61  55 S14       30.10F HX  80
LONE ROCK      PTSUNNY   77  67  71 S13       30.09F
MINERAL POINT  CLOUDY    79  68  69 SE14      30.12F HX  81
MADISON        CLOUDY    76  62  62 S10       30.13S
MIDDLETON      CLOUDY    78  62  59 S9G21     30.13S
WATERTOWN      CLOUDY    75  63  64 S13G18    30.12F
MONROE         CLOUDY    75  63  64 S14       30.14S
JANESVILLE     PTSUNNY   79  61  53 S12G17    30.13F HX  80
$$

WIZ051-052-058>065-066-070>072-252200-
SOUTHEAST WISCONSIN

CITY           SKY/WX    TMP DP  RH WIND       PRES   REMARKS
MILWAUKEE      CLOUDY    74  62  66 SE18      30.14F
WAUKESHA       MOSUNNY   75  57  53 S9        30.15F
MILWAUKEE/TIMM SUNNY     77  55  47 SE10G18   30.15F
RACINE         CLOUDY    74  62  66 S16       30.18F
KENOSHA        CLOUDY    76  61  59 SE15      30.17F
FOND DU LAC    CLOUDY    76  59  55 S13       30.13S
SHEBOYGAN      CLOUDY    72  61  68 S16G26    30.14F
WEST BEND      CLOUDY    73  59  60 SE13      30.12F
JUNEAU         PTSUNNY   75  62  63 SE10      30.14S
$$

LSZ147-162-252200-
LAKE SUPERIOR

STATION/POSITION TIME  TEMP    WIND        PRES    WAVE
                       AIR SEA DIR/SP/G            HT/PER
                 (UTC) (F)     (DEG/KT/KT) (MB)    (FT/S)
W MID LAKE BUOY  2050   60 53  130/  6/  8 1015.6F   1
DEVILS ISLAND    2100   74     160/  8/ 11 1014.8F
PORT WING        1930   78     190/ 12/ 18 1015.2S
SAXON HARBOR     2040   77     190/  8/ 14 1015.2F
$$

LMZ867-665-643>646-252200-
LAKE MICHIGAN

STATION/POSITION TIME  TEMP    WIND        PRES    WAVE
                       AIR SEA DIR/SP/G            HT/PER
                 (UTC) (F)     (DEG/KT/KT) (MB)    (FT/S)
CHAMBERS ISLAND  2040   74     130/  5/  9 1019.3F
S GREEN BAY BUOY 2100   75 73  150/ 12/ 14 1019.0
N MID LAKE BUOY  2050   67 67  180/ 14/ 16 1021.6F   2/ 3
NORTHPORT PIER   2040   69     150/  9/ 14 1020.3F
KEWAUNEE LAKESHO 2048   69     170/ 15/ 17 1019.8F
SHEBOYGAN LAKESH 2100   69     160/ 20/ 21 1020.2F
PORT WASHINGTON  2030   72     170/ 13/ 17 1021.7F
ATWATER BUOY     2009   70 68  150/ 17/ 21 1021.3F
MILWAUKEE LAKESH 2030   69     150/ 16/ 19   N/A
S MID LAKE BUOY  2050   71 71  160/  6/  6 1022.7F   1/ 4
KENOSHA   LAKESH 2100   73     140/ 14/ 15 1021.0
$$

TC  - TEMPERATURE IN CELSIUS
VSB - VISIBILITY IN STATUTE MILES
WCI - WIND CHILL INDEX
HX  - HEAT INDEX





USA.gov is the U.S. government's official web portal to all federal, state and local government web resources and services.